TimeCDT,TemperatureF,Dew PointF,Humidity,Sea Level PressureIn,VisibilityMPH,Wind Direction,Wind SpeedMPH,Gust SpeedMPH,PrecipitationIn,Events,Conditions,WindDirDegrees,DateUTC
12:12 AM,42.8,19.4,39,29.86,10.0,SSW,11.5,-,N/A,,Clear,210,2012-10-08 05:12:00
12:33 AM,42.8,21.2,42,29.85,10.0,SSW,10.4,-,N/A,,Clear,210,2012-10-08 05:33:00
12:53 AM,42.8,21.2,42,29.85,10.0,SSW,8.1,-,N/A,,Clear,210,2012-10-08 05:53:00
1:12 AM,42.8,21.2,42,29.85,10.0,SSW,9.2,-,N/A,,Clear,210,2012-10-08 06:12:00
1:33 AM,42.8,21.2,42,29.85,10.0,SSW,9.2,-,N/A,,Clear,210,2012-10-08 06:33:00
1:53 AM,42.8,23.0,46,29.84,10.0,SSW,9.2,-,N/A,,Clear,200,2012-10-08 06:53:00
2:13 AM,41.0,23.0,49,29.84,10.0,SSW,8.1,-,N/A,,Clear,200,2012-10-08 07:13:00
2:33 AM,41.0,24.8,53,29.84,10.0,SSW,8.1,-,N/A,,Clear,200,2012-10-08 07:33:00
2:53 AM,41.0,24.8,53,29.83,10.0,SSW,6.9,-,N/A,,Clear,210,2012-10-08 07:53:00
3:13 AM,41.0,24.8,53,29.82,10.0,SSW,5.8,-,N/A,,Clear,210,2012-10-08 08:13:00
3:33 AM,39.2,24.8,56,29.82,10.0,SSW,8.1,-,N/A,,Clear,210,2012-10-08 08:33:00
3:53 AM,39.2,24.8,56,29.81,10.0,SSW,6.9,-,N/A,,Clear,210,2012-10-08 08:53:00
4:13 AM,39.2,24.8,56,29.81,10.0,SSW,4.6,-,N/A,,Clear,200,2012-10-08 09:13:00
4:33 AM,39.2,24.8,56,29.81,10.0,South,4.6,-,N/A,,Clear,180,2012-10-08 09:33:00
4:52 AM,39.2,26.6,61,29.80,10.0,South,4.6,-,N/A,,Clear,170,2012-10-08 09:52:00
5:13 AM,39.2,26.6,61,29.79,10.0,South,6.9,-,N/A,,Clear,190,2012-10-08 10:13:00
5:33 AM,41.0,26.6,57,29.79,10.0,South,8.1,-,N/A,,Scattered Clouds,190,2012-10-08 10:33:00
5:52 AM,42.8,26.6,53,29.78,10.0,SSW,9.2,-,N/A,,Mostly Cloudy,200,2012-10-08 10:52:00
6:13 AM,44.6,26.6,49,29.78,10.0,SSW,8.1,-,N/A,,Overcast,200,2012-10-08 11:13:00
6:33 AM,44.6,26.6,49,29.77,10.0,South,8.1,-,N/A,,Overcast,190,2012-10-08 11:33:00
6:52 AM,44.6,26.6,49,29.76,10.0,South,10.4,-,N/A,,Overcast,190,2012-10-08 11:52:00
7:13 AM,44.6,26.6,49,29.76,10.0,South,10.4,-,N/A,,Overcast,190,2012-10-08 12:13:00
7:33 AM,46.4,26.6,46,29.76,10.0,SSW,8.1,-,N/A,,Overcast,210,2012-10-08 12:33:00
7:52 AM,46.4,26.6,46,29.75,10.0,SSW,10.4,-,N/A,,Overcast,200,2012-10-08 12:52:00
8:13 AM,46.4,26.6,46,29.76,10.0,SSW,9.2,-,N/A,,Scattered Clouds,210,2012-10-08 13:13:00
8:33 AM,46.4,26.6,46,29.75,10.0,SSW,10.4,-,N/A,,Scattered Clouds,200,2012-10-08 13:33:00
8:52 AM,48.2,28.4,46,29.75,10.0,SSW,10.4,-,N/A,,Scattered Clouds,200,2012-10-08 13:52:00
9:13 AM,48.2,28.4,46,29.75,10.0,SSW,10.4,-,N/A,,Scattered Clouds,210,2012-10-08 14:13:00
9:33 AM,48.2,28.4,46,29.74,10.0,SSW,10.4,-,N/A,,Scattered Clouds,200,2012-10-08 14:33:00
9:53 AM,50.0,28.4,43,29.74,10.0,SSW,11.5,-,N/A,,Scattered Clouds,210,2012-10-08 14:53:00
10:13 AM,51.8,28.4,41,29.72,10.0,SSW,12.7,-,N/A,,Scattered Clouds,200,2012-10-08 15:13:00
10:33 AM,53.6,28.4,38,29.71,10.0,SSW,13.8,-,N/A,,Clear,200,2012-10-08 15:33:00
10:52 AM,53.6,28.4,38,29.71,10.0,SSW,15.0,-,N/A,,Scattered Clouds,210,2012-10-08 15:52:00
11:13 AM,55.4,28.4,36,29.69,10.0,SSW,12.7,20.7,N/A,,Scattered Clouds,200,2012-10-08 16:13:00
11:33 AM,55.4,28.4,36,29.69,10.0,SSW,13.8,17.3,N/A,,Scattered Clouds,210,2012-10-08 16:33:00
11:53 AM,57.2,28.4,33,29.68,10.0,South,12.7,-,N/A,,Scattered Clouds,190,2012-10-08 16:53:00
12:13 PM,59.0,28.4,31,29.67,10.0,SSW,13.8,-,N/A,,Scattered Clouds,200,2012-10-08 17:13:00
12:33 PM,60.8,28.4,29,29.65,10.0,SSW,16.1,-,N/A,,Clear,200,2012-10-08 17:33:00
12:53 PM,62.6,28.4,27,29.64,10.0,SSW,17.3,21.9,N/A,,Scattered Clouds,200,2012-10-08 17:53:00
1:32 PM,62.6,28.4,27,29.63,10.0,SSW,12.7,21.9,N/A,,Clear,210,2012-10-08 18:32:00
1:53 PM,62.6,28.4,27,29.62,10.0,SSW,12.7,20.7,N/A,,Scattered Clouds,210,2012-10-08 18:53:00
2:13 PM,62.6,28.4,27,29.62,10.0,SSW,18.4,21.9,N/A,,Scattered Clouds,210,2012-10-08 19:13:00
2:32 PM,64.4,26.6,24,29.61,10.0,SSW,20.7,26.5,N/A,,Scattered Clouds,210,2012-10-08 19:32:00
2:53 PM,66.2,26.6,23,29.60,10.0,SW,21.9,28.8,N/A,,Scattered Clouds,220,2012-10-08 19:53:00
3:13 PM,69.8,24.8,18,29.60,10.0,WSW,26.5,38.0,N/A,,Scattered Clouds,250,2012-10-08 20:13:00
3:32 PM,69.8,24.8,18,29.60,10.0,WSW,21.9,28.8,N/A,,Scattered Clouds,250,2012-10-08 20:32:00
3:53 PM,69.8,26.6,20,29.60,10.0,WSW,21.9,32.2,N/A,,Scattered Clouds,250,2012-10-08 20:53:00
4:13 PM,69.8,28.4,21,29.61,10.0,West,21.9,31.1,N/A,,Scattered Clouds,260,2012-10-08 21:13:00
4:33 PM,69.8,28.4,21,29.61,10.0,WSW,21.9,27.6,N/A,,Clear,250,2012-10-08 21:33:00
5:12 PM,68.0,30.2,24,29.62,10.0,West,18.4,27.6,N/A,,Unknown,270,2012-10-08 22:12:00
5:33 PM,68.0,37.4,33,29.63,10.0,West,21.9,27.6,N/A,,Scattered Clouds,280,2012-10-08 22:33:00
5:53 PM,66.2,39.2,37,29.64,10.0,WNW,18.4,25.3,N/A,,Scattered Clouds,300,2012-10-08 22:53:00
6:13 PM,64.4,39.2,40,29.65,10.0,WNW,17.3,-,N/A,,Scattered Clouds,300,2012-10-08 23:13:00
7:13 PM,60.8,39.2,45,29.68,10.0,WNW,12.7,-,N/A,,Clear,290,2012-10-09 00:13:00
7:33 PM,60.8,39.2,45,29.69,10.0,NW,17.3,26.5,N/A,,Clear,320,2012-10-09 00:33:00
7:53 PM,59.0,39.2,48,29.71,10.0,NW,13.8,19.6,N/A,,Clear,320,2012-10-09 00:53:00
8:13 PM,57.2,39.2,51,29.72,10.0,NW,12.7,17.3,N/A,,Clear,320,2012-10-09 01:13:00
8:33 PM,59.0,37.4,45,29.72,10.0,NW,17.3,21.9,N/A,,Scattered Clouds,320,2012-10-09 01:33:00
8:53 PM,57.2,37.4,48,29.73,10.0,NW,15.0,20.7,N/A,,Scattered Clouds,320,2012-10-09 01:53:00
9:13 PM,57.2,37.4,48,29.75,10.0,NW,12.7,-,N/A,,Clear,320,2012-10-09 02:13:00
9:33 PM,55.4,35.6,47,29.75,10.0,NW,10.4,16.1,N/A,,Clear,320,2012-10-09 02:33:00
9:53 PM,55.4,35.6,47,29.76,10.0,NW,5.8,-,N/A,,Clear,320,2012-10-09 02:53:00
10:13 PM,55.4,35.6,47,29.76,10.0,NW,5.8,-,N/A,,Clear,310,2012-10-09 03:13:00
10:53 PM,51.8,35.6,54,29.76,10.0,Calm,Calm,-,N/A,,Clear,0,2012-10-09 03:53:00
11:13 PM,51.8,35.6,54,29.76,10.0,Calm,Calm,-,N/A,,Clear,0,2012-10-09 04:13:00
11:33 PM,51.8,35.6,54,29.76,10.0,Calm,Calm,-,N/A,,Clear,0,2012-10-09 04:33:00
11:52 PM,51.8,35.6,54,29.77,10.0,SSW,3.5,-,N/A,,Scattered Clouds,210,2012-10-09 04:52:00